McConnell AFB, KS

7:22 AM CST on February 22, 2018 (GMT -0600)
McConnell Air Force Base

Weather History for KIAB - March, 2013

Change the Weather History Date:

Tuesday, March 19, 2013

  Actual Average Record
Temperature  
Mean Temperature 42 °F -  
Max Temperature 54 °F 57 °F 88 °F (2017)
Min Temperature 30 °F 35 °F 28 °F (2016)
Degree Days  
Heating Degree Days 24    
Moisture  
Dew Point 25 °F    
Average Humidity 57    
Maximum Humidity 100    
Minimum Humidity 23    
Precipitation  
Precipitation 0.00 in - - ()
Sea Level Pressure  
Sea Level Pressure 30.20 in    
Wind  
Wind Speed 8 mph (East)    
Max Wind Speed 16 mph    
Max Gust Speed 23 mph    
Visibility 8 miles    
Events      
Averages and records for this station are not official NWS values.
T = Trace of Precipitation, MM = Missing Value Source: NWS Daily Summary

Daily Weather History Graph

Daily Weather History Graph

Search for Another Location

Airport or City:

Trip Planner

Search our weather history database for the weather conditions in past years. The results will help you decide how hot, cold, wet, or windy it might be!

Date:

Astronomy

Mar. 19, 2013 Rise Set
Actual Time 7:33 AM CDT 7:40 PM CDT
Civil Twilight 7:07 AM CDT 8:06 PM CDT
Nautical Twilight 6:37 AM CDT 8:36 PM CDT
Astronomical Twilight 6:06 AM CDT 9:07 PM CDT
Moon 12:31 PM CDT (3/19) 2:21 AM CDT (3/19)
Length of Visible Light 12h 58m
Length of Day
12h 06m
Waxing Crescent, 50% of the Moon is Illuminated
Mar 19
Waxing Crescent
Mar 19
First Quarter
Mar 27
Full
Apr 2
Last Quarter
Apr 10
New

Hourly Weather History & Observations

Time (CDT) Temp. Windchill Dew Point Humidity Pressure Visibility Wind Dir Wind Speed Gust Speed Precip Events Conditions
12:58 AM 40.5 °F 37.3 °F 20.1 °F 44% 30.03 in 10.0 mi East 4.6 mph - N/A   Clear
1:58 AM 37.9 °F 32.1 °F 21.6 °F 52% 30.07 in 10.0 mi ENE 8.1 mph - N/A   Clear
2:58 AM 37.0 °F 30.4 °F 19.6 °F 49% 30.09 in 10.0 mi ENE 9.2 mph - N/A   Clear
3:58 AM 35.8 °F 27.8 °F 17.6 °F 48% 30.09 in 10.0 mi ENE 11.5 mph - N/A   Clear
4:58 AM 34.2 °F 27.5 °F 17.4 °F 50% 30.11 in 10.0 mi East 8.1 mph - N/A   Clear
5:58 AM 33.4 °F 27.3 °F 16.9 °F 51% 30.14 in 10.0 mi East 6.9 mph - N/A   Clear
6:58 AM 31.5 °F 25.8 °F 17.6 °F 57% 30.17 in 10.0 mi East 5.8 mph - N/A   Clear
7:58 AM 30.6 °F 23.1 °F 17.4 °F 58% 30.19 in 10.0 mi East 8.1 mph - N/A   Clear
8:58 AM 36.7 °F 29.9 °F 16.0 °F 43% 30.19 in 10.0 mi SE 9.2 mph - N/A   Clear
9:58 AM 41.0 °F 34.7 °F 13.6 °F 33% 30.19 in 10.0 mi East 10.4 mph - N/A   Clear
10:58 AM 45.1 °F 38.8 °F 15.6 °F 31% 30.19 in 10.0 mi East 13.8 mph - N/A   Partly Cloudy
11:58 AM 48.6 °F - 15.3 °F 26% 30.19 in 10.0 mi ESE 16.1 mph 23.0 mph N/A   Clear
12:58 PM 50.9 °F - 14.7 °F 24% 30.20 in 10.0 mi SE 12.7 mph 21.9 mph N/A   Clear
1:58 PM 52.7 °F - 16.0 °F 23% 30.19 in 10.0 mi SE 9.2 mph - N/A   Partly Cloudy
2:58 PM 53.8 °F - 17.8 °F 24% 30.18 in 10.0 mi North 1.2 mph - N/A   Mostly Cloudy
3:58 PM 53.2 °F - 17.1 °F 24% 30.17 in 10.0 mi Variable 2.3 mph - N/A   Mostly Cloudy
4:58 PM 52.7 °F - 17.6 °F 25% 30.19 in 10.0 mi Calm Calm - N/A   Mostly Cloudy
5:58 PM 52.9 °F - 18.1 °F 26% 30.18 in 10.0 mi NE 11.5 mph - N/A   Partly Cloudy
6:58 PM 48.7 °F - 22.5 °F 36% 30.20 in 8.0 mi ENE 13.8 mph - N/A   Clear
7:58 PM 46.2 °F 41.2 °F 21.9 °F 38% 30.24 in 7.0 mi East 10.4 mph - N/A   Clear
8:08 PM 44.6 °F 39.7 °F 26.6 °F 49% 30.21 in 9.0 mi ENE 9.2 mph - N/A   Clear
8:58 PM 42.6 °F 36.3 °F 31.1 °F 64% 30.27 in 7.0 mi ENE 11.5 mph - N/A   Partly Cloudy
9:03 PM 42.8 °F 36.6 °F 32.0 °F 66% 30.24 in 7.0 mi ENE 11.5 mph - N/A   Partly Cloudy
9:38 PM 41.0 °F 34.7 °F 32.0 °F 70% 30.26 in 7.0 mi ENE 10.4 mph - N/A   Partly Cloudy
9:43 PM 41.0 °F 34.3 °F 33.8 °F 76% 30.26 in 7.0 mi ENE 11.5 mph - N/A   Partly Cloudy
9:53 PM 41.0 °F 34.3 °F 32.0 °F 70% 30.25 in 7.0 mi ENE 11.5 mph - N/A   Partly Cloudy
9:58 PM 40.3 °F 33.4 °F 33.6 °F 77% 30.27 in 7.0 mi East 11.5 mph - N/A   Partly Cloudy
10:03 PM 39.2 °F 32.5 °F 33.8 °F 81% 30.24 in 8.0 mi ENE 10.4 mph - N/A   Partly Cloudy
10:43 PM 39.2 °F 33.6 °F 35.6 °F 87% 30.25 in 9.0 mi ENE 8.1 mph - N/A   Clear
10:58 PM 37.9 °F 33.5 °F 36.3 °F 94% 30.29 in 6.0 mi East 5.8 mph - N/A   Clear
11:03 PM 37.4 °F 32.8 °F 37.4 °F 100% 30.26 in 6.0 mi East 5.8 mph - N/A   Clear
11:18 PM 37.4 °F - 37.4 °F 100% 30.26 in 5.0 mi East 2.3 mph - N/A   Clear
11:33 PM 37.4 °F - 37.4 °F 100% 30.27 in 5.0 mi Calm Calm - N/A   Clear
11:38 PM 37.4 °F - 35.6 °F 93% 30.27 in 4.0 mi Calm Calm - N/A   Clear
11:58 PM 34.7 °F - 34.7 °F 100% 30.31 in 4.0 mi SW 2.3 mph - N/A   Clear